TimeMST,TemperatureF,Dew PointF,Humidity,Sea Level PressureIn,VisibilityMPH,Wind Direction,Wind SpeedMPH,Gust SpeedMPH,PrecipitationIn,Events,Conditions,WindDirDegrees,DateUTC
12:53 AM,37.0,27.0,67,29.55,10.0,WNW,4.6,-,N/A,,Mostly Cloudy,300,2012-12-19 07:53:00
1:53 AM,36.0,28.0,73,29.57,10.0,Variable,4.6,-,N/A,,Mostly Cloudy,0,2012-12-19 08:53:00
2:53 AM,34.0,28.0,79,29.59,10.0,NW,13.8,21.9,N/A,,Mostly Cloudy,320,2012-12-19 09:53:00
3:53 AM,30.9,24.1,76,29.62,7.0,WNW,12.7,21.9,0.00,Snow,Light Snow,290,2012-12-19 10:53:00
4:53 AM,32.0,21.2,64,29.65,10.0,West,10.4,18.4,N/A,,Overcast,280,2012-12-19 11:53:00
5:53 AM,32.0,15.1,50,29.68,10.0,WNW,11.5,23.0,N/A,,Overcast,290,2012-12-19 12:53:00
6:53 AM,30.9,12.0,46,29.77,10.0,WNW,10.4,20.7,N/A,,Overcast,290,2012-12-19 13:53:00
7:53 AM,30.0,10.0,43,29.85,10.0,WNW,12.7,25.3,N/A,,Partly Cloudy,290,2012-12-19 14:53:00
8:53 AM,30.0,7.0,38,29.93,10.0,WNW,17.3,31.1,N/A,,Clear,300,2012-12-19 15:53:00
9:53 AM,32.0,6.1,34,30.03,10.0,WNW,12.7,25.3,N/A,,Clear,300,2012-12-19 16:53:00
10:53 AM,33.1,6.1,32,30.06,10.0,WNW,12.7,27.6,N/A,,Clear,290,2012-12-19 17:53:00
11:53 AM,35.1,7.0,31,30.09,10.0,NW,9.2,18.4,N/A,,Clear,310,2012-12-19 18:53:00
12:53 PM,37.0,7.0,29,30.10,10.0,WNW,11.5,18.4,N/A,,Clear,300,2012-12-19 19:53:00
1:53 PM,37.0,7.0,29,30.12,10.0,NW,12.7,20.7,N/A,,Clear,310,2012-12-19 20:53:00
2:53 PM,37.0,8.1,30,30.16,10.0,West,9.2,21.9,N/A,,Clear,280,2012-12-19 21:53:00
3:53 PM,36.0,8.1,31,30.21,10.0,WNW,6.9,20.7,N/A,,Clear,290,2012-12-19 22:53:00
4:53 PM,34.0,7.0,32,30.24,10.0,WNW,5.8,16.1,N/A,,Clear,300,2012-12-19 23:53:00
5:53 PM,33.1,7.0,34,30.26,10.0,West,6.9,-,N/A,,Clear,280,2012-12-20 00:53:00
6:53 PM,32.0,8.6,38,30.26,10.0,WNW,5.8,-,N/A,,Clear,300,2012-12-20 01:53:00
7:53 PM,32.0,9.0,38,30.33,10.0,West,5.8,-,N/A,,Clear,270,2012-12-20 02:53:00
8:53 PM,28.0,12.9,53,30.38,9.0,Calm,Calm,-,N/A,,Clear,0,2012-12-20 03:53:00
9:53 PM,28.0,14.0,56,30.40,5.0,Calm,Calm,-,N/A,,Haze,0,2012-12-20 04:53:00
10:53 PM,28.0,10.0,47,30.43,10.0,SSW,3.5,-,N/A,,Clear,210,2012-12-20 05:53:00
11:53 PM,25.0,14.0,63,30.45,10.0,Calm,Calm,-,N/A,,Clear,0,2012-12-20 06:53:00